TimeEDT,TemperatureF,Dew PointF,Humidity,Sea Level PressureIn,VisibilityMPH,Wind Direction,Wind SpeedMPH,Gust SpeedMPH,PrecipitationIn,Events,Conditions,WindDirDegrees,DateUTC
12:15 AM,78.8,75.2,89,29.97,10.0,South,4.6,-,N/A,,Scattered Clouds,190,2012-10-03 04:15:00
12:55 AM,77.0,75.2,94,29.98,10.0,South,5.8,-,N/A,,Overcast,190,2012-10-03 04:55:00
1:15 AM,77.0,75.2,94,29.99,10.0,SSW,6.9,-,N/A,,Overcast,200,2012-10-03 05:15:00
1:35 AM,77.0,75.2,94,29.99,-9999.0,South,6.9,-,N/A,,Unknown,190,2012-10-03 05:35:00
1:55 AM,77.0,75.2,94,30.00,10.0,South,6.9,-,N/A,,Mostly Cloudy,190,2012-10-03 05:55:00
2:15 AM,77.0,75.2,94,30.00,10.0,SSW,5.8,-,N/A,,Mostly Cloudy,200,2012-10-03 06:15:00
2:35 AM,77.0,75.2,94,30.01,-9999.0,SSW,10.4,-,N/A,,Unknown,210,2012-10-03 06:35:00
2:55 AM,78.8,75.2,89,30.01,10.0,SSW,4.6,-,N/A,,Unknown,200,2012-10-03 06:55:00
3:15 AM,77.0,73.4,89,30.01,10.0,SSW,4.6,-,N/A,,Overcast,210,2012-10-03 07:15:00
3:35 AM,77.0,73.4,89,30.01,-9999.0,SSW,5.8,-,N/A,,Unknown,200,2012-10-03 07:35:00
3:55 AM,75.2,75.2,100,30.01,10.0,SSW,4.6,-,N/A,,Scattered Clouds,200,2012-10-03 07:55:00
4:15 AM,75.2,73.4,94,30.01,10.0,South,4.6,-,N/A,,Scattered Clouds,180,2012-10-03 08:15:00
4:55 AM,75.2,75.2,100,30.02,10.0,South,3.5,-,N/A,,Scattered Clouds,190,2012-10-03 08:55:00
5:15 AM,75.2,75.2,100,30.03,7.0,South,3.5,-,N/A,,Scattered Clouds,180,2012-10-03 09:15:00
5:55 AM,75.2,75.2,100,30.04,7.0,South,3.5,-,N/A,,Mostly Cloudy,190,2012-10-03 09:55:00
6:15 AM,75.2,75.2,100,30.05,7.0,SSW,3.5,-,N/A,,Scattered Clouds,200,2012-10-03 10:15:00
6:35 AM,75.2,75.2,100,30.05,-9999.0,South,3.5,-,N/A,,Unknown,180,2012-10-03 10:35:00
6:55 AM,75.2,75.2,100,30.05,5.0,South,3.5,-,N/A,,Clear,170,2012-10-03 10:55:00
7:15 AM,75.2,75.2,100,30.06,5.0,Calm,Calm,-,N/A,,Mostly Cloudy,0,2012-10-03 11:15:00
7:55 AM,75.2,75.2,100,30.07,4.0,Calm,Calm,-,N/A,,Mostly Cloudy,0,2012-10-03 11:55:00
8:15 AM,75.2,75.2,100,30.07,5.0,South,3.5,-,N/A,,Scattered Clouds,190,2012-10-03 12:15:00
8:35 AM,77.0,75.2,94,30.08,-9999.0,South,4.6,-,N/A,,Unknown,190,2012-10-03 12:35:00
8:55 AM,78.8,77.0,94,30.09,7.0,SSW,4.6,-,N/A,,Clear,210,2012-10-03 12:55:00
9:15 AM,78.8,75.2,89,30.10,10.0,SSW,5.8,-,N/A,,Scattered Clouds,210,2012-10-03 13:15:00
9:55 AM,80.6,75.2,84,30.10,10.0,SSW,5.8,-,N/A,,Scattered Clouds,210,2012-10-03 13:55:00
10:15 AM,80.6,75.2,84,30.11,10.0,SSW,6.9,-,N/A,,Scattered Clouds,210,2012-10-03 14:15:00
10:35 AM,80.6,75.2,84,30.11,-9999.0,SW,3.5,-,N/A,,Unknown,230,2012-10-03 14:35:00
10:55 AM,82.4,75.2,79,30.11,10.0,SW,3.5,-,N/A,,Mostly Cloudy,220,2012-10-03 14:55:00
11:15 AM,82.4,73.4,74,30.11,10.0,Calm,Calm,-,N/A,,Mostly Cloudy,0,2012-10-03 15:15:00
11:35 AM,82.4,73.4,74,30.10,-9999.0,WSW,4.6,-,N/A,,Unknown,250,2012-10-03 15:35:00
11:55 AM,82.4,73.4,74,30.10,10.0,WSW,4.6,-,N/A,,Scattered Clouds,240,2012-10-03 15:55:00
12:15 PM,86.0,71.6,62,30.10,10.0,SSW,4.6,-,N/A,,Scattered Clouds,210,2012-10-03 16:15:00
12:35 PM,84.2,71.6,66,30.10,-9999.0,WSW,4.6,-,N/A,,Unknown,250,2012-10-03 16:35:00
12:55 PM,86.0,71.6,62,30.10,10.0,SSW,5.8,-,N/A,,Scattered Clouds,200,2012-10-03 16:55:00
1:15 PM,86.0,71.6,62,30.10,10.0,SSW,6.9,-,N/A,,Scattered Clouds,210,2012-10-03 17:15:00
1:35 PM,86.0,69.8,58,30.09,-9999.0,SW,4.6,-,N/A,,Unknown,230,2012-10-03 17:35:00
1:55 PM,86.0,69.8,58,30.08,10.0,SSW,5.8,-,N/A,,Clear,200,2012-10-03 17:55:00
2:15 PM,86.0,69.8,58,30.08,10.0,South,6.9,-,N/A,,Scattered Clouds,180,2012-10-03 18:15:00
2:35 PM,87.8,69.8,55,30.07,-9999.0,WSW,4.6,-,N/A,,Unknown,240,2012-10-03 18:35:00
2:55 PM,87.8,69.8,55,30.07,10.0,South,6.9,-,N/A,,Scattered Clouds,190,2012-10-03 18:55:00
3:15 PM,87.8,69.8,55,30.07,10.0,SSW,4.6,-,N/A,,Scattered Clouds,200,2012-10-03 19:15:00
3:35 PM,86.0,71.6,62,30.07,-9999.0,South,4.6,-,N/A,,Unknown,170,2012-10-03 19:35:00
3:55 PM,84.2,71.6,66,30.07,10.0,South,4.6,-,N/A,,Overcast,170,2012-10-03 19:55:00
4:15 PM,82.4,73.4,74,30.07,10.0,ESE,4.6,-,N/A,,Overcast,120,2012-10-03 20:15:00
4:35 PM,82.4,73.4,74,30.08,-9999.0,SSE,5.8,-,N/A,,Unknown,150,2012-10-03 20:35:00
4:55 PM,82.4,71.6,70,30.08,10.0,SSE,4.6,-,N/A,,Clear,150,2012-10-03 20:55:00
5:15 PM,80.6,71.6,74,30.08,10.0,South,6.9,-,N/A,,Clear,170,2012-10-03 21:15:00
5:35 PM,80.6,71.6,74,30.08,-9999.0,South,4.6,-,N/A,,Unknown,170,2012-10-03 21:35:00
5:55 PM,78.8,73.4,83,30.09,10.0,South,3.5,-,N/A,,Clear,170,2012-10-03 21:55:00
6:15 PM,78.8,75.2,89,30.10,10.0,Calm,Calm,-,N/A,,Clear,0,2012-10-03 22:15:00
6:35 PM,78.8,75.2,89,30.10,-9999.0,SE,3.5,-,N/A,,Unknown,140,2012-10-03 22:35:00
6:55 PM,78.8,75.2,89,30.10,10.0,Calm,Calm,-,N/A,,Scattered Clouds,0,2012-10-03 22:55:00
7:15 PM,78.8,75.2,89,30.10,10.0,Calm,Calm,-,N/A,,Scattered Clouds,0,2012-10-03 23:15:00
7:35 PM,78.8,75.2,89,30.10,-9999.0,Calm,Calm,-,N/A,,Unknown,0,2012-10-03 23:35:00
7:55 PM,77.0,75.2,94,30.11,10.0,Calm,Calm,-,N/A,,Clear,0,2012-10-03 23:55:00
8:15 PM,77.0,75.2,94,30.12,10.0,South,3.5,-,N/A,,Clear,170,2012-10-04 00:15:00
8:35 PM,75.2,75.2,100,30.12,-9999.0,South,3.5,-,N/A,,Unknown,170,2012-10-04 00:35:00
8:55 PM,77.0,75.2,94,30.13,10.0,South,3.5,-,N/A,,Clear,170,2012-10-04 00:55:00
9:15 PM,77.0,75.2,94,30.13,10.0,Calm,Calm,-,N/A,,Scattered Clouds,0,2012-10-04 01:15:00
9:55 PM,77.0,75.2,94,30.13,7.0,Calm,Calm,-,N/A,,Clear,0,2012-10-04 01:55:00
10:15 PM,75.2,75.2,100,30.13,7.0,South,3.5,-,N/A,,Clear,190,2012-10-04 02:15:00
10:35 PM,75.2,75.2,100,30.14,-9999.0,South,3.5,-,N/A,,Unknown,190,2012-10-04 02:35:00
10:55 PM,77.0,75.2,94,30.14,7.0,South,4.6,-,N/A,,Clear,180,2012-10-04 02:55:00
11:15 PM,77.0,75.2,94,30.14,7.0,Calm,Calm,-,N/A,,Clear,0,2012-10-04 03:15:00
11:35 PM,75.2,75.2,100,30.15,-9999.0,South,3.5,-,N/A,,Unknown,180,2012-10-04 03:35:00
11:55 PM,75.2,75.2,100,30.14,5.0,South,3.5,-,N/A,,Scattered Clouds,190,2012-10-04 03:55:00